| time (UTC) | temp C | wind direction | speed KPH | gust KPH | rain 1hr cm | rain 24hr cm | rain mn cm | humidity % | barometer mb |
| 20260504160210 | 23 | 219 | 6.4 | 9.7 | 0.00 | 0.00 | 0.00 | 54 | 1002.0 |
| 20260504151139 | 22 | 218 | 8.0 | 11.3 | 0.00 | 0.00 | 0.00 | 58 | 1002.2 |
| 20260504150636 | 21 | 257 | 9.7 | 16.1 | 0.00 | 0.00 | 0.00 | 58 | 1002.5 |
| 20260504150133 | 21 | 198 | 8.0 | 9.7 | 0.00 | 0.00 | 0.00 | 58 | 1002.3 |
| 20260504141101 | 20 | 228 | 6.4 | 8.0 | 0.00 | 0.00 | 0.00 | 64 | 1003.1 |
| 20260504140558 | 20 | 214 | 4.8 | 4.8 | 0.00 | 0.00 | 0.00 | 66 | 1003.0 |
| 20260504130522 | 17 | 200 | 3.2 | 3.2 | 0.00 | 0.00 | 0.00 | 75 | 1003.5 |
| 20260504110409 | 11 | 208 | 0.0 | 0.0 | 0.00 | 0.00 | 0.00 | 88 | 1003.9 |
| 20260504100326 | 10 | 248 | 0.0 | 0.0 | 0.00 | 0.00 | 0.00 | 90 | 1004.5 |
| 20260504081720 | 11 | 223 | 1.6 | 1.6 | 0.00 | 0.00 | 0.00 | 81 | 1005.4 |
| 20260504081216 | 11 | 224 | 0.0 | 1.6 | 0.00 | 0.00 | 0.00 | 82 | 1005.6 |
| 20260504080712 | 11 | 217 | 0.0 | 0.0 | 0.00 | 0.00 | 0.00 | 82 | 1005.5 |
| 20260504080209 | 11 | 215 | 0.0 | 1.6 | 0.00 | 0.00 | 0.00 | 82 | 1005.8 |
| 20260504070137 | 13 | 250 | 0.0 | 0.0 | 0.00 | 0.00 | 0.00 | 72 | 1006.2 |
| 20260504050526 | 14 | 224 | 1.6 | 3.2 | 0.00 | 0.00 | 0.00 | 71 | 1006.9 |
| 20260504050023 | 14 | 221 | 0.0 | 1.6 | 0.00 | 0.00 | 0.00 | 66 | 1006.7 |
| 20260504045519 | 13 | 223 | 1.6 | 1.6 | 0.00 | 0.00 | 0.00 | 68 | 1006.3 |
| 20260504045015 | 14 | 239 | 0.0 | 0.0 | 0.00 | 0.00 | 0.00 | 68 | 1006.8 |
| 20260504044512 | 15 | 239 | 0.0 | 0.0 | 0.00 | 0.00 | 0.00 | 64 | 1006.7 |
| 20260504044009 | 15 | 240 | 0.0 | 0.0 | 0.00 | 0.00 | 0.00 | 65 | 1006.8 |
| 20260504043506 | 15 | 230 | 0.0 | 0.0 | 0.00 | 0.00 | 0.00 | 66 | 1006.8 |
| 20260504043004 | 15 | 249 | 0.0 | 0.0 | 0.00 | 0.00 | 0.00 | 62 | 1007.1 |
| 20260504042500 | 15 | 249 | 1.6 | 1.6 | 0.00 | 0.00 | 0.00 | 64 | 1006.8 |
| 20260504041957 | 15 | 249 | 0.0 | 0.0 | 0.00 | 0.00 | 0.00 | 63 | 1007.0 |
| 20260504041453 | 15 | 250 | 0.0 | 0.0 | 0.00 | 0.00 | 0.00 | 65 | 1006.9 |
| 20260504040949 | 16 | 251 | 1.6 | 1.6 | 0.00 | 0.00 | 0.00 | 61 | 1007.1 |
| 20260504040447 | 16 | 248 | 0.0 | 0.0 | 0.00 | 0.00 | 0.00 | 61 | 1007.2 |
| 20260504035943 | 16 | 248 | 0.0 | 1.6 | 0.00 | 0.00 | 0.00 | 59 | 1007.4 |
| 20260504035441 | 15 | 244 | 1.6 | 1.6 | 0.00 | 0.00 | 0.00 | 63 | 1007.6 |
| 20260504034937 | 15 | 227 | 0.0 | 0.0 | 0.00 | 0.00 | 0.00 | 65 | 1007.4 |
| 20260504034434 | 15 | 227 | 1.6 | 1.6 | 0.00 | 0.00 | 0.00 | 65 | 1007.4 |
| 20260504033931 | 16 | 234 | 0.0 | 0.0 | 0.00 | 0.00 | 0.00 | 60 | 1007.4 |
| 20260504033429 | 16 | 225 | 0.0 | 0.0 | 0.00 | 0.00 | 0.00 | 60 | 1007.7 |
| 20260504032926 | 16 | 224 | 0.0 | 0.0 | 0.00 | 0.00 | 0.00 | 63 | 1007.6 |
| 20260504032423 | 16 | 224 | 1.6 | 1.6 | 0.00 | 0.00 | 0.00 | 64 | 1007.6 |
| 20260504031919 | 16 | 224 | 1.6 | 1.6 | 0.00 | 0.00 | 0.00 | 63 | 1007.6 |
| 20260504031417 | 16 | 225 | 1.6 | 1.6 | 0.00 | 0.00 | 0.00 | 62 | 1007.8 |
| 20260504030913 | 17 | 231 | 1.6 | 1.6 | 0.00 | 0.00 | 0.00 | 57 | 1007.8 |
| 20260504030410 | 18 | 244 | 0.0 | 1.6 | 0.00 | 0.00 | 0.00 | 54 | 1007.9 |
| 20260504025906 | 18 | 248 | 3.2 | 3.2 | 0.00 | 0.00 | 0.00 | 53 | 1007.8 |
| 20260504025403 | 18 | 242 | 3.2 | 3.2 | 0.00 | 0.00 | 0.00 | 53 | 1007.9 |
| 20260504024900 | 17 | 247 | 3.2 | 3.2 | 0.00 | 0.00 | 0.00 | 54 | 1007.9 |
| 20260504024356 | 17 | 234 | 1.6 | 1.6 | 0.00 | 0.00 | 0.00 | 57 | 1007.7 |
| 20260504023854 | 17 | 232 | 1.6 | 1.6 | 0.00 | 0.00 | 0.00 | 58 | 1008.1 |
| 20260504023350 | 17 | 226 | 1.6 | 1.6 | 0.00 | 0.00 | 0.00 | 60 | 1007.8 |
| 20260504022846 | 16 | 225 | 0.0 | 0.0 | 0.00 | 0.00 | 0.00 | 61 | 1007.8 |
| 20260504022343 | 17 | 225 | 0.0 | 0.0 | 0.00 | 0.00 | 0.00 | 61 | 1007.8 |
| 20260504021839 | 17 | 226 | 0.0 | 0.0 | 0.00 | 0.00 | 0.00 | 60 | 1007.8 |
| 20260504021337 | 17 | 225 | 0.0 | 0.0 | 0.00 | 0.00 | 0.00 | 59 | 1007.9 |
| 20260504020834 | 17 | 219 | 0.0 | 0.0 | 0.00 | 0.00 | 0.00 | 60 | 1007.7 |
| 20260504020331 | 17 | 219 | 0.0 | 0.0 | 0.00 | 0.00 | 0.00 | 60 | 1007.8 |
| 20260504015826 | 17 | 220 | 1.6 | 1.6 | 0.00 | 0.00 | 0.00 | 61 | 1007.9 |
| 20260504015323 | 17 | 227 | 0.0 | 1.6 | 0.00 | 0.00 | 0.00 | 58 | 1008.1 |
| 20260504014819 | 17 | 216 | 0.0 | 1.6 | 0.00 | 0.00 | 0.00 | 60 | 1007.7 |
| 20260504014315 | 17 | 213 | 1.6 | 1.6 | 0.00 | 0.00 | 0.00 | 60 | 1007.6 |
| 20260504013813 | 17 | 223 | 0.0 | 0.0 | 0.00 | 0.00 | 0.00 | 58 | 1007.9 |
| 20260504013311 | 17 | 219 | 0.0 | 0.0 | 0.00 | 0.00 | 0.00 | 59 | 1007.9 |
| 20260504012807 | 18 | 218 | 1.6 | 1.6 | 0.00 | 0.00 | 0.00 | 60 | 1007.7 |
| 20260504012305 | 18 | 233 | 0.0 | 1.6 | 0.00 | 0.00 | 0.00 | 54 | 1008.0 |
| 20260504011802 | 19 | 237 | 0.0 | 1.6 | 0.00 | 0.00 | 0.00 | 53 | 1007.6 |
| 20260504011258 | 19 | 236 | 3.2 | 3.2 | 0.00 | 0.00 | 0.00 | 52 | 1007.8 |
| 20260504010754 | 19 | 251 | 1.6 | 1.6 | 0.00 | 0.00 | 0.00 | 52 | 1007.7 |
| 20260504010250 | 19 | 264 | 3.2 | 4.8 | 0.00 | 0.00 | 0.00 | 51 | 1007.6 |
| 20260504005747 | 20 | 244 | 4.8 | 4.8 | 0.00 | 0.00 | 0.00 | 51 | 1007.8 |
| 20260504005244 | 20 | 240 | 1.6 | 1.6 | 0.00 | 0.00 | 0.00 | 51 | 1007.7 |
| 20260504004742 | 20 | 248 | 1.6 | 3.2 | 0.00 | 0.00 | 0.00 | 50 | 1007.7 |
| 20260504004239 | 20 | 248 | 1.6 | 1.6 | 0.00 | 0.00 | 0.00 | 51 | 1007.7 |
| 20260504003735 | 20 | 251 | 3.2 | 3.2 | 0.00 | 0.00 | 0.00 | 50 | 1007.8 |
| 20260504003232 | 20 | 238 | 1.6 | 3.2 | 0.00 | 0.00 | 0.00 | 50 | 1007.9 |
| 20260504002729 | 20 | 238 | 1.6 | 3.2 | 0.00 | 0.00 | 0.00 | 49 | 1007.8 |
| 20260504002226 | 20 | 255 | 4.8 | 4.8 | 0.00 | 0.00 | 0.00 | 49 | 1007.8 |
| 20260504001724 | 20 | 257 | 6.4 | 8.0 | 0.00 | 0.00 | 0.00 | 49 | 1007.9 |
| 20260504001220 | 21 | 242 | 1.6 | 1.6 | 0.00 | 0.00 | 0.00 | 49 | 1007.7 |
| 20260504000717 | 21 | 271 | 3.2 | 3.2 | 0.00 | 0.00 | 0.00 | 49 | 1007.9 |
| 20260504000214 | 21 | 239 | 1.6 | 1.6 | 0.00 | 0.00 | 0.00 | 50 | 1007.4 |
| 20260503235713 | 21 | 269 | 6.4 | 9.7 | 0.00 | 0.00 | 0.00 | 48 | 1007.8 |
| 20260503235209 | 21 | 236 | 1.6 | 3.2 | 0.00 | 0.00 | 0.00 | 50 | 1007.5 |
| 20260503234707 | 21 | 254 | 1.6 | 3.2 | 0.00 | 0.00 | 0.00 | 50 | 1008.1 |
| 20260503234205 | 21 | 258 | 3.2 | 4.8 | 0.00 | 0.00 | 0.00 | 49 | 1007.8 |
| 20260503233701 | 21 | 236 | 1.6 | 1.6 | 0.00 | 0.00 | 0.00 | 48 | 1007.5 |
| 20260503233157 | 21 | 233 | 1.6 | 3.2 | 0.00 | 0.00 | 0.00 | 48 | 1007.9 |
| 20260503232654 | 21 | 240 | 1.6 | 1.6 | 0.00 | 0.00 | 0.00 | 48 | 1007.8 |
| 20260503232151 | 21 | 264 | 4.8 | 4.8 | 0.00 | 0.00 | 0.00 | 49 | 1007.8 |
| 20260503231650 | 21 | 269 | 3.2 | 3.2 | 0.00 | 0.00 | 0.00 | 47 | 1007.6 |
| 20260503231145 | 21 | 262 | 6.4 | 9.7 | 0.00 | 0.00 | 0.00 | 46 | 1008.2 |
| 20260503230642 | 21 | 281 | 6.4 | 9.7 | 0.00 | 0.00 | 0.00 | 48 | 1008.2 |
| 20260503230139 | 21 | 276 | 6.4 | 8.0 | 0.00 | 0.00 | 0.00 | 48 | 1008.0 |
| 20260503225637 | 21 | 263 | 4.8 | 8.0 | 0.00 | 0.00 | 0.00 | 48 | 1007.8 |
| 20260503225136 | 21 | 235 | 8.0 | 11.3 | 0.00 | 0.00 | 0.00 | 48 | 1008.0 |
| 20260503224634 | 21 | 263 | 4.8 | 4.8 | 0.00 | 0.00 | 0.00 | 50 | 1007.9 |
| 20260503224132 | 21 | 254 | 4.8 | 4.8 | 0.00 | 0.00 | 0.00 | 48 | 1007.7 |
| 20260503223630 | 21 | 244 | 4.8 | 4.8 | 0.00 | 0.00 | 0.00 | 49 | 1007.4 |
| 20260503223126 | 21 | 253 | 4.8 | 8.0 | 0.00 | 0.00 | 0.00 | 47 | 1007.2 |
| 20260503222623 | 21 | 259 | 11.3 | 12.9 | 0.00 | 0.00 | 0.00 | 48 | 1008.1 |
| 20260503222121 | 21 | 263 | 3.2 | 3.2 | 0.00 | 0.00 | 0.00 | 48 | 1008.1 |
| 20260503221619 | 21 | 250 | 11.3 | 12.9 | 0.00 | 0.00 | 0.00 | 47 | 1008.0 |
| 20260503221116 | 21 | 229 | 8.0 | 11.3 | 0.00 | 0.00 | 0.00 | 47 | 1007.9 |
| 20260503220613 | 22 | 230 | 4.8 | 8.0 | 0.00 | 0.00 | 0.00 | 50 | 1007.9 |
| 20260503220109 | 21 | 238 | 6.4 | 8.0 | 0.00 | 0.00 | 0.00 | 47 | 1008.0 |
| 20260503215607 | 22 | 242 | 4.8 | 4.8 | 0.00 | 0.00 | 0.00 | 48 | 1008.0 |
| 20260503215103 | 22 | 251 | 6.4 | 9.7 | 0.00 | 0.00 | 0.00 | 48 | 1008.1 |
| 20260503214602 | 22 | 259 | 9.7 | 12.9 | 0.00 | 0.00 | 0.00 | 47 | 1008.3 |
| 20260503214058 | 22 | 252 | 6.4 | 8.0 | 0.00 | 0.00 | 0.00 | 47 | 1007.9 |
| 20260503213556 | 21 | 272 | 8.0 | 11.3 | 0.00 | 0.00 | 0.00 | 47 | 1007.9 |
| 20260503213053 | 21 | 229 | 4.8 | 4.8 | 0.00 | 0.00 | 0.00 | 47 | 1007.8 |
| 20260503212550 | 21 | 273 | 9.7 | 12.9 | 0.00 | 0.00 | 0.00 | 46 | 1008.0 |
| 20260503212047 | 22 | 278 | 6.4 | 11.3 | 0.00 | 0.00 | 0.00 | 47 | 1007.9 |
| 20260503211545 | 21 | 271 | 8.0 | 12.9 | 0.00 | 0.00 | 0.00 | 46 | 1007.9 |
| 20260503211040 | 21 | 236 | 4.8 | 4.8 | 0.00 | 0.00 | 0.00 | 46 | 1008.0 |
| 20260503210537 | 21 | 231 | 9.7 | 11.3 | 0.00 | 0.00 | 0.00 | 47 | 1008.0 |
| 20260503210033 | 21 | 246 | 8.0 | 12.9 | 0.00 | 0.00 | 0.00 | 47 | 1008.2 |
| 20260503205530 | 21 | 264 | 4.8 | 4.8 | 0.00 | 0.00 | 0.00 | 48 | 1008.7 |
| 20260503205026 | 21 | 242 | 4.8 | 8.0 | 0.00 | 0.00 | 0.00 | 48 | 1008.3 |
| 20260503204523 | 21 | 243 | 8.0 | 11.3 | 0.00 | 0.00 | 0.00 | 48 | 1008.7 |
| 20260503204020 | 21 | 270 | 16.1 | 22.5 | 0.00 | 0.00 | 0.00 | 46 | 1008.6 |
| 20260503203517 | 21 | 240 | 9.7 | 12.9 | 0.00 | 0.00 | 0.00 | 48 | 1008.5 |
| 20260503203014 | 21 | 240 | 9.7 | 12.9 | 0.00 | 0.00 | 0.00 | 48 | 1008.7 |
| 20260503202512 | 21 | 253 | 4.8 | 4.8 | 0.00 | 0.00 | 0.00 | 51 | 1008.6 |
| 20260503202010 | 21 | 234 | 6.4 | 9.7 | 0.00 | 0.00 | 0.00 | 50 | 1008.5 |
| 20260503201508 | 21 | 257 | 4.8 | 8.0 | 0.00 | 0.00 | 0.00 | 49 | 1008.6 |
| 20260503201005 | 21 | 225 | 8.0 | 11.3 | 0.00 | 0.00 | 0.00 | 49 | 1008.8 |
| 20260503200501 | 21 | 198 | 8.0 | 11.3 | 0.00 | 0.00 | 0.00 | 49 | 1008.8 |
| 20260503195957 | 20 | 215 | 4.8 | 8.0 | 0.00 | 0.00 | 0.00 | 49 | 1008.7 |
| 20260503195455 | 20 | 212 | 8.0 | 11.3 | 0.00 | 0.00 | 0.00 | 51 | 1008.9 |
| 20260503194951 | 20 | 281 | 11.3 | 17.7 | 0.00 | 0.00 | 0.00 | 51 | 1009.3 |
| 20260503194449 | 20 | 262 | 6.4 | 8.0 | 0.00 | 0.00 | 0.00 | 51 | 1008.9 |
| 20260503193943 | 20 | 214 | 4.8 | 8.0 | 0.00 | 0.00 | 0.00 | 51 | 1009.0 |
| 20260503193439 | 20 | 248 | 8.0 | 11.3 | 0.00 | 0.00 | 0.00 | 51 | 1008.9 |
| 20260503192935 | 20 | 233 | 9.7 | 11.3 | 0.00 | 0.00 | 0.00 | 50 | 1008.7 |
| 20260503192432 | 20 | 238 | 11.3 | 14.5 | 0.00 | 0.00 | 0.00 | 51 | 1008.9 |
| 20260503191927 | 20 | 217 | 6.4 | 9.7 | 0.00 | 0.00 | 0.00 | 50 | 1009.0 |
| 20260503191425 | 20 | 241 | 12.9 | 17.7 | 0.00 | 0.00 | 0.00 | 51 | 1009.2 |
| 20260503190921 | 20 | 208 | 9.7 | 11.3 | 0.00 | 0.00 | 0.00 | 51 | 1009.0 |
| 20260503190419 | 20 | 218 | 4.8 | 8.0 | 0.00 | 0.00 | 0.00 | 52 | 1009.2 |
| 20260503185915 | 20 | 265 | 12.9 | 20.9 | 0.00 | 0.00 | 0.00 | 50 | 1009.3 |
| 20260503185412 | 20 | 247 | 8.0 | 11.3 | 0.00 | 0.00 | 0.00 | 52 | 1009.8 |
| 20260503184911 | 19 | 246 | 9.7 | 11.3 | 0.00 | 0.00 | 0.00 | 51 | 1009.7 |
| 20260503184408 | 19 | 253 | 12.9 | 22.5 | 0.00 | 0.00 | 0.00 | 51 | 1009.7 |
| 20260503183904 | 19 | 246 | 6.4 | 9.7 | 0.00 | 0.00 | 0.00 | 53 | 1010.0 |
| 20260503183401 | 19 | 212 | 14.5 | 17.7 | 0.00 | 0.00 | 0.00 | 51 | 1009.4 |
| 20260503182858 | 18 | 223 | 11.3 | 16.1 | 0.00 | 0.00 | 0.00 | 53 | 1009.3 |
| 20260503182357 | 18 | 239 | 8.0 | 11.3 | 0.00 | 0.00 | 0.00 | 52 | 1009.7 |
| 20260503181854 | 18 | 205 | 4.8 | 8.0 | 0.00 | 0.00 | 0.00 | 52 | 1009.8 |
| 20260503181351 | 18 | 220 | 4.8 | 4.8 | 0.00 | 0.00 | 0.00 | 53 | 1010.2 |
| 20260503180847 | 18 | 263 | 6.4 | 9.7 | 0.00 | 0.00 | 0.00 | 53 | 1009.7 |
| 20260503180345 | 18 | 258 | 6.4 | 9.7 | 0.00 | 0.00 | 0.00 | 52 | 1010.0 |
| 20260503175841 | 18 | 258 | 9.7 | 11.3 | 0.00 | 0.00 | 0.00 | 52 | 1010.4 |
| 20260503175340 | 18 | 258 | 8.0 | 9.7 | 0.00 | 0.00 | 0.00 | 53 | 1010.6 |
| 20260503174835 | 18 | 237 | 6.4 | 8.0 | 0.00 | 0.00 | 0.00 | 52 | 1010.5 |
| 20260503174333 | 17 | 243 | 6.4 | 8.0 | 0.00 | 0.00 | 0.00 | 53 | 1010.4 |
| 20260503173828 | 17 | 219 | 11.3 | 12.9 | 0.00 | 0.00 | 0.00 | 51 | 1009.6 |
| 20260503173325 | 17 | 221 | 9.7 | 12.9 | 0.00 | 0.00 | 0.00 | 52 | 1010.1 |
| 20260503172822 | 17 | 222 | 8.0 | 11.3 | 0.00 | 0.00 | 0.00 | 52 | 1010.8 |
| 20260503172320 | 18 | 271 | 8.0 | 12.9 | 0.00 | 0.00 | 0.00 | 51 | 1010.9 |
| 20260503171815 | 18 | 278 | 8.0 | 9.7 | 0.00 | 0.00 | 0.00 | 50 | 1011.0 |
| 20260503171312 | 17 | 210 | 9.7 | 11.3 | 0.00 | 0.00 | 0.00 | 51 | 1010.8 |
| 20260503170809 | 17 | 222 | 6.4 | 9.7 | 0.00 | 0.00 | 0.00 | 53 | 1011.0 |
| 20260503170306 | 17 | 217 | 8.0 | 11.3 | 0.00 | 0.00 | 0.00 | 52 | 1010.9 |